Year,Month,Day,Hour,Minute,Value (Times are PST for temperature in C)
2008,11,26,00,00,3.10
2008,11,26,00,01,3.10
2008,11,26,00,02,3.10
2008,11,26,00,03,3.10
2008,11,26,00,04,3.10
2008,11,26,00,05,3.00
2008,11,26,00,06,3.00
2008,11,26,00,07,3.00
2008,11,26,00,08,3.00
2008,11,26,00,09,3.00
2008,11,26,00,10,3.00
2008,11,26,00,11,3.00
2008,11,26,00,12,3.00
2008,11,26,00,13,2.90
2008,11,26,00,14,2.90
2008,11,26,00,15,2.90
2008,11,26,00,16,2.90
2008,11,26,00,17,2.90
2008,11,26,00,18,2.80
2008,11,26,00,19,2.80
2008,11,26,00,20,2.80
2008,11,26,00,21,2.80
2008,11,26,00,22,2.80
2008,11,26,00,23,2.80
2008,11,26,00,24,2.80
2008,11,26,00,25,2.80
2008,11,26,00,26,2.80
2008,11,26,00,27,2.80
2008,11,26,00,28,2.80
2008,11,26,00,29,2.80
2008,11,26,00,30,2.80
2008,11,26,00,31,2.80
2008,11,26,00,32,2.80
2008,11,26,00,33,2.80
2008,11,26,00,34,2.80
2008,11,26,00,35,2.80
2008,11,26,00,36,2.80
2008,11,26,00,37,2.90
2008,11,26,00,38,2.90
2008,11,26,00,39,2.90
2008,11,26,00,40,3.00
2008,11,26,00,41,3.00
2008,11,26,00,42,3.00
2008,11,26,00,43,3.10
2008,11,26,00,44,3.10
2008,11,26,00,45,3.00
2008,11,26,00,46,3.00
2008,11,26,00,47,3.00
2008,11,26,00,48,3.00
2008,11,26,00,49,3.00
2008,11,26,00,50,2.90
2008,11,26,00,51,2.90
2008,11,26,00,52,2.90
2008,11,26,00,53,2.90
2008,11,26,00,54,2.90
2008,11,26,00,55,2.80
2008,11,26,00,56,2.80
2008,11,26,00,57,2.80
2008,11,26,00,58,2.80
2008,11,26,00,59,2.80
2008,11,26,01,00,2.80
2008,11,26,01,01,2.80
2008,11,26,01,02,2.80
2008,11,26,01,03,2.80
2008,11,26,01,04,2.80
2008,11,26,01,05,2.80
2008,11,26,01,06,2.80
2008,11,26,01,07,2.80
2008,11,26,01,08,2.80
2008,11,26,01,09,2.80
2008,11,26,01,10,2.80
2008,11,26,01,11,2.80
2008,11,26,01,12,2.80
2008,11,26,01,13,2.70
2008,11,26,01,14,2.70
2008,11,26,01,15,2.70
2008,11,26,01,16,2.70
2008,11,26,01,17,2.70
2008,11,26,01,18,2.70
2008,11,26,01,19,2.70
2008,11,26,01,20,2.70
2008,11,26,01,21,2.70
2008,11,26,01,22,2.60
2008,11,26,01,23,2.60
2008,11,26,01,24,2.70
2008,11,26,01,25,2.70
2008,11,26,01,26,2.70
2008,11,26,01,27,2.80
2008,11,26,01,28,2.80
2008,11,26,01,29,2.80
2008,11,26,01,30,2.90
2008,11,26,01,31,2.90
2008,11,26,01,32,2.90
2008,11,26,01,33,2.90
2008,11,26,01,34,2.90
2008,11,26,01,35,2.90
2008,11,26,01,36,2.90
2008,11,26,01,37,2.80
2008,11,26,01,38,2.80
2008,11,26,01,39,2.80
2008,11,26,01,40,2.70
2008,11,26,01,41,2.70
2008,11,26,01,42,2.70
2008,11,26,01,43,2.70
2008,11,26,01,44,2.70
2008,11,26,01,45,2.70
2008,11,26,01,46,2.60
2008,11,26,01,47,2.60
2008,11,26,01,48,2.50
2008,11,26,01,49,2.50
2008,11,26,01,50,2.50
2008,11,26,01,51,2.40
2008,11,26,01,52,2.40
2008,11,26,01,53,2.30
2008,11,26,01,54,2.30
2008,11,26,01,55,2.30
2008,11,26,01,56,2.30
2008,11,26,01,57,2.30
2008,11,26,01,58,2.20
2008,11,26,01,59,2.20
2008,11,26,02,00,2.20
2008,11,26,02,01,2.20
2008,11,26,02,02,2.20
2008,11,26,02,03,2.20
2008,11,26,02,04,2.20
2008,11,26,02,05,2.20
2008,11,26,02,06,2.20
2008,11,26,02,07,2.10
2008,11,26,02,08,2.10
2008,11,26,02,09,2.10
2008,11,26,02,10,2.10
2008,11,26,02,11,2.00
2008,11,26,02,12,2.00
2008,11,26,02,13,1.90
2008,11,26,02,14,1.90
2008,11,26,02,15,1.90
2008,11,26,02,16,1.90
2008,11,26,02,17,1.80
2008,11,26,02,18,1.80
2008,11,26,02,19,1.80
2008,11,26,02,20,1.80
2008,11,26,02,21,1.70
2008,11,26,02,22,1.70
2008,11,26,02,23,1.70
2008,11,26,02,24,1.60
2008,11,26,02,25,1.60
2008,11,26,02,26,1.60
2008,11,26,02,27,1.50
2008,11,26,02,28,1.50
2008,11,26,02,29,1.40
2008,11,26,02,30,1.50
2008,11,26,02,31,1.50
2008,11,26,02,32,1.60
2008,11,26,02,33,1.70
2008,11,26,02,34,1.70
2008,11,26,02,35,1.70
2008,11,26,02,36,1.80
2008,11,26,02,37,1.70
2008,11,26,02,38,1.70
2008,11,26,02,39,1.70
2008,11,26,02,40,1.70
2008,11,26,02,41,1.60
2008,11,26,02,42,1.60
2008,11,26,02,43,1.50
2008,11,26,02,44,1.50
2008,11,26,02,45,1.40
2008,11,26,02,46,1.30
2008,11,26,02,47,1.30
2008,11,26,02,48,1.30
2008,11,26,02,49,1.30
2008,11,26,02,50,1.30
2008,11,26,02,51,1.30
2008,11,26,02,52,1.30
2008,11,26,02,53,1.30
2008,11,26,02,54,1.30
2008,11,26,02,55,1.30
2008,11,26,02,56,1.30
2008,11,26,02,57,1.30
2008,11,26,02,58,1.30
2008,11,26,02,59,1.30
2008,11,26,03,00,1.20
2008,11,26,03,01,1.20
2008,11,26,03,02,1.20
2008,11,26,03,03,1.20
2008,11,26,03,04,1.20
2008,11,26,03,05,1.20
2008,11,26,03,06,1.20
2008,11,26,03,07,1.20
2008,11,26,03,08,1.10
2008,11,26,03,09,1.10
2008,11,26,03,10,1.00
2008,11,26,03,11,1.00
2008,11,26,03,12,0.90
2008,11,26,03,13,0.90
2008,11,26,03,14,0.80
2008,11,26,03,15,0.80
2008,11,26,03,16,0.80
2008,11,26,03,17,0.80
2008,11,26,03,18,0.70
2008,11,26,03,19,0.70
2008,11,26,03,20,0.60
2008,11,26,03,21,0.60
2008,11,26,03,22,0.60
2008,11,26,03,23,0.60
2008,11,26,03,24,0.60
2008,11,26,03,25,0.50
2008,11,26,03,26,0.50
2008,11,26,03,27,0.50
2008,11,26,03,28,0.60
2008,11,26,03,29,0.60
2008,11,26,03,30,0.60
2008,11,26,03,31,0.60
2008,11,26,03,32,0.60
2008,11,26,03,33,0.50
2008,11,26,03,34,0.50
2008,11,26,03,35,0.50
2008,11,26,03,36,0.50
2008,11,26,03,37,0.50
2008,11,26,03,38,0.50
2008,11,26,03,39,0.40
2008,11,26,03,40,0.40
2008,11,26,03,41,0.40
2008,11,26,03,42,0.40
2008,11,26,03,43,0.40
2008,11,26,03,44,0.30
2008,11,26,03,45,0.30
2008,11,26,03,46,0.30
2008,11,26,03,47,0.30
2008,11,26,03,48,0.30
2008,11,26,03,49,0.40
2008,11,26,03,50,0.40
2008,11,26,03,51,0.40
2008,11,26,03,52,0.40
2008,11,26,03,53,0.30
2008,11,26,03,54,0.30
2008,11,26,03,55,0.30
2008,11,26,03,56,0.30
2008,11,26,03,57,0.30
2008,11,26,03,58,0.30
2008,11,26,03,59,0.30
2008,11,26,04,00,0.30
2008,11,26,04,01,0.30
2008,11,26,04,02,0.40
2008,11,26,04,03,0.60
2008,11,26,04,04,0.70
2008,11,26,04,05,0.70
2008,11,26,04,06,0.70
2008,11,26,04,07,0.70
2008,11,26,04,08,0.70
2008,11,26,04,09,0.80
2008,11,26,04,10,0.80
2008,11,26,04,11,0.80
2008,11,26,04,12,0.80
2008,11,26,04,13,0.80
2008,11,26,04,14,0.80
2008,11,26,04,15,0.70
2008,11,26,04,16,0.70
2008,11,26,04,17,0.70
2008,11,26,04,18,0.70
2008,11,26,04,19,0.70
2008,11,26,04,20,0.60
2008,11,26,04,21,0.60
2008,11,26,04,22,0.60
2008,11,26,04,23,0.60
2008,11,26,04,24,0.60
2008,11,26,04,25,0.50
2008,11,26,04,26,0.50
2008,11,26,04,27,0.40
2008,11,26,04,28,0.40
2008,11,26,04,29,0.40
2008,11,26,04,30,0.40
2008,11,26,04,31,0.40
2008,11,26,04,32,0.40
2008,11,26,04,33,0.30
2008,11,26,04,34,0.30
2008,11,26,04,35,0.30
2008,11,26,04,36,0.30
2008,11,26,04,37,0.30
2008,11,26,04,38,0.20
2008,11,26,04,39,0.20
2008,11,26,04,40,0.20
2008,11,26,04,41,0.20
2008,11,26,04,42,0.30
2008,11,26,04,43,0.30
2008,11,26,04,44,0.40
2008,11,26,04,45,0.50
2008,11,26,04,46,0.60
2008,11,26,04,47,0.80
2008,11,26,04,48,0.80
2008,11,26,04,49,0.90
2008,11,26,04,50,0.90
2008,11,26,04,51,0.90
2008,11,26,04,52,1.00
2008,11,26,04,53,1.10
2008,11,26,04,54,1.10
2008,11,26,04,55,1.10
2008,11,26,04,56,1.20
2008,11,26,04,57,1.20
2008,11,26,04,58,1.20
2008,11,26,04,59,1.20
2008,11,26,05,00,1.20
2008,11,26,05,01,1.20
2008,11,26,05,02,1.10
2008,11,26,05,03,1.10
2008,11,26,05,04,1.10
2008,11,26,05,05,1.10
2008,11,26,05,06,1.10
2008,11,26,05,07,1.10
2008,11,26,05,08,1.00
2008,11,26,05,09,1.00
2008,11,26,05,10,1.10
2008,11,26,05,11,1.10
2008,11,26,05,12,1.20
2008,11,26,05,13,1.20
2008,11,26,05,14,1.10
2008,11,26,05,15,1.10
2008,11,26,05,16,1.10
2008,11,26,05,17,1.10
2008,11,26,05,18,1.10
2008,11,26,05,19,1.10
2008,11,26,05,20,1.10
2008,11,26,05,21,1.00
2008,11,26,05,22,1.00
2008,11,26,05,23,1.00
2008,11,26,05,24,1.00
2008,11,26,05,25,1.00
2008,11,26,05,26,1.00
2008,11,26,05,27,1.10
2008,11,26,05,28,1.00
2008,11,26,05,29,1.00
2008,11,26,05,30,1.00
2008,11,26,05,31,1.00
2008,11,26,05,32,0.90
2008,11,26,05,33,0.90
2008,11,26,05,34,0.90
2008,11,26,05,35,0.80
2008,11,26,05,36,0.90
2008,11,26,05,37,0.90
2008,11,26,05,38,0.90
2008,11,26,05,39,0.90
2008,11,26,05,40,1.00
2008,11,26,05,41,1.00
2008,11,26,05,42,1.10
2008,11,26,05,43,1.10
2008,11,26,05,44,1.20
2008,11,26,05,45,1.20
2008,11,26,05,46,1.30
2008,11,26,05,47,1.30
2008,11,26,05,48,1.30
2008,11,26,05,49,1.30
2008,11,26,05,50,1.30
2008,11,26,05,51,1.40
2008,11,26,05,52,1.40
2008,11,26,05,53,1.50
2008,11,26,05,54,1.50
2008,11,26,05,55,1.50
2008,11,26,05,56,1.50
2008,11,26,05,57,1.60
2008,11,26,05,58,1.60
2008,11,26,05,59,1.60
2008,11,26,06,00,1.60
2008,11,26,06,01,1.60
2008,11,26,06,02,1.60
2008,11,26,06,03,1.60
2008,11,26,06,04,1.70
2008,11,26,06,05,1.70
2008,11,26,06,06,1.80
2008,11,26,06,07,1.90
2008,11,26,06,08,2.00
2008,11,26,06,09,2.10
2008,11,26,06,10,2.30
2008,11,26,06,11,2.40
2008,11,26,06,12,2.60
2008,11,26,06,13,2.70
2008,11,26,06,14,2.80
2008,11,26,06,15,2.90
2008,11,26,06,16,2.90
2008,11,26,06,17,2.90
2008,11,26,06,18,3.00
2008,11,26,06,19,3.00
2008,11,26,06,20,3.10
2008,11,26,06,21,3.10
2008,11,26,06,22,3.20
2008,11,26,06,23,3.20
2008,11,26,06,24,3.20
2008,11,26,06,25,3.20
2008,11,26,06,26,3.20
2008,11,26,06,27,3.20
2008,11,26,06,28,3.20
2008,11,26,06,29,3.20
2008,11,26,06,30,3.10
2008,11,26,06,31,3.10
2008,11,26,06,32,3.10
2008,11,26,06,33,3.10
2008,11,26,06,34,3.00
2008,11,26,06,35,3.00
2008,11,26,06,36,3.00
2008,11,26,06,37,3.00
2008,11,26,06,38,3.00
2008,11,26,06,39,3.00
2008,11,26,06,40,3.00
2008,11,26,06,41,3.10
2008,11,26,06,42,3.10
2008,11,26,06,43,3.20
2008,11,26,06,44,3.20
2008,11,26,06,45,3.20
2008,11,26,06,46,3.20
2008,11,26,06,47,3.20
2008,11,26,06,48,3.20
2008,11,26,06,49,3.20
2008,11,26,06,50,3.20
2008,11,26,06,51,3.20
2008,11,26,06,52,3.30
2008,11,26,06,53,3.30
2008,11,26,06,54,3.30
2008,11,26,06,55,3.30
2008,11,26,06,56,3.30
2008,11,26,06,57,3.30
2008,11,26,06,58,3.30
2008,11,26,06,59,3.30
2008,11,26,07,00,3.30
2008,11,26,07,01,3.30
2008,11,26,07,02,3.30
2008,11,26,07,03,3.30
2008,11,26,07,04,3.20
2008,11,26,07,05,3.20
2008,11,26,07,06,3.20
2008,11,26,07,07,3.20
2008,11,26,07,08,3.10
2008,11,26,07,09,3.10
2008,11,26,07,10,3.10
2008,11,26,07,11,3.00
2008,11,26,07,12,3.00
2008,11,26,07,13,3.00
2008,11,26,07,14,2.90
2008,11,26,07,15,2.90
2008,11,26,07,16,2.90
2008,11,26,07,17,2.80
2008,11,26,07,18,2.80
2008,11,26,07,19,2.80
2008,11,26,07,20,2.80
2008,11,26,07,21,2.80
2008,11,26,07,22,2.80
2008,11,26,07,23,2.80
2008,11,26,07,24,2.70
2008,11,26,07,25,2.70
2008,11,26,07,26,2.70
2008,11,26,07,27,2.70
2008,11,26,07,28,2.70
2008,11,26,07,29,2.70
2008,11,26,07,30,2.70
2008,11,26,07,31,2.70
2008,11,26,07,32,2.70
2008,11,26,07,33,2.70
2008,11,26,07,34,2.70
2008,11,26,07,35,2.70
2008,11,26,07,36,2.80
2008,11,26,07,37,2.80
2008,11,26,07,38,2.80
2008,11,26,07,39,2.80
2008,11,26,07,40,2.80
2008,11,26,07,41,2.90
2008,11,26,07,42,2.90
2008,11,26,07,43,2.90
2008,11,26,07,44,2.90
2008,11,26,07,45,2.90
2008,11,26,07,46,2.90
2008,11,26,07,47,2.90
2008,11,26,07,48,2.90
2008,11,26,07,49,2.90
2008,11,26,07,50,3.00
2008,11,26,07,51,3.00
2008,11,26,07,52,3.00
2008,11,26,07,53,3.00
2008,11,26,07,54,3.10
2008,11,26,07,55,3.10
2008,11,26,07,56,3.10
2008,11,26,07,57,3.20
2008,11,26,07,58,3.20
2008,11,26,07,59,3.20
2008,11,26,08,00,3.30
2008,11,26,08,01,3.30
2008,11,26,08,02,3.30
2008,11,26,08,03,3.30
2008,11,26,08,04,3.30
2008,11,26,08,05,3.40
2008,11,26,08,06,3.40
2008,11,26,08,07,3.40
2008,11,26,08,08,3.40
2008,11,26,08,09,3.50
2008,11,26,08,10,3.50
2008,11,26,08,11,3.50
2008,11,26,08,12,3.60
2008,11,26,08,13,3.60
2008,11,26,08,14,3.60
2008,11,26,08,15,3.70
2008,11,26,08,16,3.70
2008,11,26,08,17,3.80
2008,11,26,08,18,3.80
2008,11,26,08,19,3.80
2008,11,26,08,20,3.90
2008,11,26,08,21,3.90
2008,11,26,08,22,3.90
2008,11,26,08,23,4.00
2008,11,26,08,24,4.00
2008,11,26,08,25,4.00
2008,11,26,08,26,4.00
2008,11,26,08,27,4.10
2008,11,26,08,28,4.10
2008,11,26,08,29,4.10
2008,11,26,08,30,4.10
2008,11,26,08,31,4.10
2008,11,26,08,32,4.10
2008,11,26,08,33,4.10
2008,11,26,08,34,4.10
2008,11,26,08,35,4.20
2008,11,26,08,36,4.20
2008,11,26,08,37,4.20
2008,11,26,08,38,4.30
2008,11,26,08,39,4.30
2008,11,26,08,40,4.40
2008,11,26,08,41,4.40
2008,11,26,08,42,4.50
2008,11,26,08,43,4.50
2008,11,26,08,44,4.60
2008,11,26,08,45,4.70
2008,11,26,08,46,4.70
2008,11,26,08,47,4.80
2008,11,26,08,48,4.80
2008,11,26,08,49,4.80
2008,11,26,08,50,4.90
2008,11,26,08,51,5.00
2008,11,26,08,52,5.10
2008,11,26,08,53,5.10
2008,11,26,08,54,5.20
2008,11,26,08,55,5.20
2008,11,26,08,56,5.20
2008,11,26,08,57,5.30
2008,11,26,08,58,5.30
2008,11,26,08,59,5.30
2008,11,26,09,00,5.40
2008,11,26,09,01,5.40
2008,11,26,09,02,5.40
2008,11,26,09,03,5.40
2008,11,26,09,04,5.40
2008,11,26,09,05,5.50
2008,11,26,09,06,5.50
2008,11,26,09,07,5.50
2008,11,26,09,08,5.60
2008,11,26,09,09,5.60
2008,11,26,09,10,5.60
2008,11,26,09,11,5.70
2008,11,26,09,12,5.70
2008,11,26,09,13,5.70
2008,11,26,09,14,5.80
2008,11,26,09,15,5.80
2008,11,26,09,16,5.80
2008,11,26,09,17,5.80
2008,11,26,09,18,5.80
2008,11,26,09,19,5.80
2008,11,26,09,20,5.80
2008,11,26,09,21,5.80
2008,11,26,09,22,5.80
2008,11,26,09,23,5.80
2008,11,26,09,24,5.80
2008,11,26,09,25,5.80
2008,11,26,09,26,5.80
2008,11,26,09,27,5.80
2008,11,26,09,28,5.80
2008,11,26,09,29,5.80
2008,11,26,09,30,5.90
2008,11,26,09,31,5.90
2008,11,26,09,32,5.90
2008,11,26,09,33,5.90
2008,11,26,09,34,5.90
2008,11,26,09,35,6.00
2008,11,26,09,36,6.00
2008,11,26,09,37,6.00
2008,11,26,09,38,6.10
2008,11,26,09,39,6.10
2008,11,26,09,40,6.10
2008,11,26,09,41,6.10
2008,11,26,09,42,6.10
2008,11,26,09,43,6.20
2008,11,26,09,44,6.20
2008,11,26,09,45,6.20
2008,11,26,09,46,6.20
2008,11,26,09,47,6.20
2008,11,26,09,48,6.20
2008,11,26,09,49,6.20
2008,11,26,09,50,6.20
2008,11,26,09,51,6.30
2008,11,26,09,52,6.30
2008,11,26,09,53,6.30
2008,11,26,09,54,6.30
2008,11,26,09,55,6.30
2008,11,26,09,56,6.40
2008,11,26,09,57,6.40
2008,11,26,09,58,6.40
2008,11,26,09,59,6.40
2008,11,26,10,00,6.40
2008,11,26,10,01,6.50
2008,11,26,10,02,6.50
2008,11,26,10,03,6.50
2008,11,26,10,04,6.60
2008,11,26,10,05,6.60
2008,11,26,10,06,6.60
2008,11,26,10,07,6.60
2008,11,26,10,08,6.60
2008,11,26,10,09,6.60
2008,11,26,10,10,6.60
2008,11,26,10,11,6.60
2008,11,26,10,12,6.70
2008,11,26,10,13,6.70
2008,11,26,10,14,6.70
2008,11,26,10,15,6.70
2008,11,26,10,16,6.70
2008,11,26,10,17,6.70
2008,11,26,10,18,6.70
2008,11,26,10,19,6.70
2008,11,26,10,20,6.70
2008,11,26,10,21,6.70
2008,11,26,10,22,6.70
2008,11,26,10,23,6.80
2008,11,26,10,24,6.80
2008,11,26,10,25,6.90
2008,11,26,10,26,6.90
2008,11,26,10,27,7.00
2008,11,26,10,28,7.10
2008,11,26,10,29,7.10
2008,11,26,10,30,7.10
2008,11,26,10,31,7.10
2008,11,26,10,32,7.20
2008,11,26,10,33,7.20
2008,11,26,10,34,7.20
2008,11,26,10,35,7.10
2008,11,26,10,36,7.10
2008,11,26,10,37,7.10
2008,11,26,10,38,7.00
2008,11,26,10,39,6.90
2008,11,26,10,40,6.90
2008,11,26,10,41,6.90
2008,11,26,10,42,7.00
2008,11,26,10,43,7.00
2008,11,26,10,44,7.00
2008,11,26,10,45,7.00
2008,11,26,10,46,7.00
2008,11,26,10,47,7.00
2008,11,26,10,48,6.90
2008,11,26,10,49,6.90
2008,11,26,10,50,6.90
2008,11,26,10,51,6.90
2008,11,26,10,52,6.90
2008,11,26,10,53,7.00
2008,11,26,10,54,7.00
2008,11,26,10,55,7.00
2008,11,26,10,56,7.00
2008,11,26,10,57,7.00
2008,11,26,10,58,7.00
2008,11,26,10,59,6.90
2008,11,26,11,00,6.90
2008,11,26,11,01,6.90
2008,11,26,11,02,6.90
2008,11,26,11,03,6.90
2008,11,26,11,04,7.00
2008,11,26,11,05,7.00
2008,11,26,11,06,7.00
2008,11,26,11,07,7.00
2008,11,26,11,08,7.00
2008,11,26,11,09,7.00
2008,11,26,11,10,7.00
2008,11,26,11,11,7.00
2008,11,26,11,12,6.90
2008,11,26,11,13,7.00
2008,11,26,11,14,7.00
2008,11,26,11,15,7.00
2008,11,26,11,16,7.00
2008,11,26,11,17,7.00
2008,11,26,11,18,7.10
2008,11,26,11,19,7.10
2008,11,26,11,20,7.10
2008,11,26,11,21,7.10
2008,11,26,11,22,7.20
2008,11,26,11,23,7.20
2008,11,26,11,24,7.20
2008,11,26,11,25,7.20
2008,11,26,11,26,7.20
2008,11,26,11,27,7.20
2008,11,26,11,28,7.20
2008,11,26,11,29,7.20
2008,11,26,11,30,7.20
2008,11,26,11,31,7.20
2008,11,26,11,32,7.20
2008,11,26,11,33,7.20
2008,11,26,11,34,7.20
2008,11,26,11,35,7.30
2008,11,26,11,36,7.30
2008,11,26,11,37,7.30
2008,11,26,11,38,7.30
2008,11,26,11,39,7.30
2008,11,26,11,40,7.30
2008,11,26,11,41,7.30
2008,11,26,11,42,7.30
2008,11,26,11,43,7.30
2008,11,26,11,44,7.40
2008,11,26,11,45,7.40
2008,11,26,11,46,7.40
2008,11,26,11,47,7.40
2008,11,26,11,48,7.40
2008,11,26,11,49,7.40
2008,11,26,11,50,7.40
2008,11,26,11,51,7.40
2008,11,26,11,52,7.40
2008,11,26,11,53,7.40
2008,11,26,11,54,7.40
2008,11,26,11,55,7.40
2008,11,26,11,56,7.40
2008,11,26,11,57,7.50
2008,11,26,11,58,7.50
2008,11,26,11,59,7.50
2008,11,26,12,00,7.50
2008,11,26,12,01,7.50
2008,11,26,12,02,7.50
2008,11,26,12,03,7.50
2008,11,26,12,04,7.50
2008,11,26,12,05,7.50
2008,11,26,12,06,7.50
2008,11,26,12,07,7.60
2008,11,26,12,08,7.60
2008,11,26,12,09,7.60
2008,11,26,12,10,7.50
2008,11,26,12,11,7.50
2008,11,26,12,12,7.60
2008,11,26,12,13,7.60
2008,11,26,12,14,7.60
2008,11,26,12,15,7.60
2008,11,26,12,16,7.70
2008,11,26,12,17,7.70
2008,11,26,12,18,7.70
2008,11,26,12,19,7.70
2008,11,26,12,20,7.70
2008,11,26,12,21,7.70
2008,11,26,12,22,7.70
2008,11,26,12,23,7.70
2008,11,26,12,24,7.80
2008,11,26,12,25,7.80
2008,11,26,12,26,7.80
2008,11,26,12,27,7.70
2008,11,26,12,28,7.70
2008,11,26,12,29,7.70
2008,11,26,12,30,7.70
2008,11,26,12,31,7.80
2008,11,26,12,32,7.80
2008,11,26,12,33,7.80
2008,11,26,12,34,7.70
2008,11,26,12,35,7.70
2008,11,26,12,36,7.70
2008,11,26,12,37,7.80
2008,11,26,12,38,7.80
2008,11,26,12,39,7.80
2008,11,26,12,40,7.80
2008,11,26,12,41,7.80
2008,11,26,12,42,7.80
2008,11,26,12,43,7.80
2008,11,26,12,44,7.80
2008,11,26,12,45,7.80
2008,11,26,12,46,7.90
2008,11,26,12,47,8.00
2008,11,26,12,48,8.00
2008,11,26,12,49,8.10
2008,11,26,12,50,8.10
2008,11,26,12,51,8.20
2008,11,26,12,52,8.20
2008,11,26,12,53,8.10
2008,11,26,12,54,8.20
2008,11,26,12,55,8.20
2008,11,26,12,56,8.20
2008,11,26,12,57,8.20
2008,11,26,12,58,8.10
2008,11,26,12,59,8.10
2008,11,26,13,00,8.10
2008,11,26,13,01,8.10
2008,11,26,13,02,8.10
2008,11,26,13,03,8.10
2008,11,26,13,04,8.10
2008,11,26,13,05,8.00
2008,11,26,13,06,8.00
2008,11,26,13,07,8.00
2008,11,26,13,08,7.90
2008,11,26,13,09,7.90
2008,11,26,13,10,7.80
2008,11,26,13,11,7.70
2008,11,26,13,12,7.70
2008,11,26,13,13,7.70
2008,11,26,13,14,7.60
2008,11,26,13,15,7.60
2008,11,26,13,16,7.60
2008,11,26,13,17,7.60
2008,11,26,13,18,7.60
2008,11,26,13,19,7.60
2008,11,26,13,20,7.50
2008,11,26,13,21,7.50
2008,11,26,13,22,7.50
2008,11,26,13,23,7.50
2008,11,26,13,24,7.50
2008,11,26,13,25,7.50
2008,11,26,13,26,7.50
2008,11,26,13,27,7.50
2008,11,26,13,28,7.50
2008,11,26,13,29,7.50
2008,11,26,13,30,7.40
2008,11,26,13,31,7.40
2008,11,26,13,32,7.40
2008,11,26,13,33,7.40
2008,11,26,13,34,7.40
2008,11,26,13,35,7.30
2008,11,26,13,36,7.30
2008,11,26,13,37,7.30
2008,11,26,13,38,7.30
2008,11,26,13,39,7.30
2008,11,26,13,40,7.30
2008,11,26,13,41,7.30
2008,11,26,13,42,7.30
2008,11,26,13,43,7.30
2008,11,26,13,44,7.30
2008,11,26,13,45,7.30
2008,11,26,13,46,7.30
2008,11,26,13,47,7.20
2008,11,26,13,48,7.20
2008,11,26,13,49,7.20
2008,11,26,13,50,7.20
2008,11,26,13,51,7.20
2008,11,26,13,52,7.20
2008,11,26,13,53,7.20
2008,11,26,13,54,7.20
2008,11,26,13,55,7.20
2008,11,26,13,56,7.20
2008,11,26,13,57,7.20
2008,11,26,13,58,7.20
2008,11,26,13,59,7.20
2008,11,26,14,00,7.10
2008,11,26,14,01,7.10
2008,11,26,14,02,7.10
2008,11,26,14,03,7.10
2008,11,26,14,04,7.10
2008,11,26,14,05,7.10
2008,11,26,14,06,7.10
2008,11,26,14,07,7.10
2008,11,26,14,08,7.10
2008,11,26,14,09,7.10
2008,11,26,14,10,7.10
2008,11,26,14,11,7.10
2008,11,26,14,12,7.00
2008,11,26,14,13,7.00
2008,11,26,14,14,7.00
2008,11,26,14,15,7.00
2008,11,26,14,16,7.00
2008,11,26,14,17,7.00
2008,11,26,14,18,7.00
2008,11,26,14,19,7.00
2008,11,26,14,20,7.00
2008,11,26,14,21,7.00
2008,11,26,14,22,6.90
2008,11,26,14,23,6.90
2008,11,26,14,24,6.90
2008,11,26,14,25,6.90
2008,11,26,14,26,6.90
2008,11,26,14,27,6.90
2008,11,26,14,28,6.90
2008,11,26,14,29,6.90
2008,11,26,14,30,6.90
2008,11,26,14,31,6.90
2008,11,26,14,32,6.90
2008,11,26,14,33,6.90
2008,11,26,14,34,6.80
2008,11,26,14,35,6.80
2008,11,26,14,36,6.80
2008,11,26,14,37,6.80
2008,11,26,14,38,6.80
2008,11,26,14,39,6.80
2008,11,26,14,40,6.80
2008,11,26,14,41,6.80
2008,11,26,14,42,6.80
2008,11,26,14,43,6.90
2008,11,26,14,44,6.90
2008,11,26,14,45,6.90
2008,11,26,14,46,6.90
2008,11,26,14,47,6.80
2008,11,26,14,48,6.80
2008,11,26,14,49,6.80
2008,11,26,14,50,6.80
2008,11,26,14,51,6.80
2008,11,26,14,52,6.80
2008,11,26,14,53,6.80
2008,11,26,14,54,6.80
2008,11,26,14,55,6.80
2008,11,26,14,56,6.80
2008,11,26,14,57,6.90
2008,11,26,14,58,6.90
2008,11,26,14,59,6.90
2008,11,26,15,00,6.90
2008,11,26,15,01,6.90
2008,11,26,15,02,6.90
2008,11,26,15,03,6.80
2008,11,26,15,04,6.80
2008,11,26,15,05,6.80
2008,11,26,15,06,6.80
2008,11,26,15,07,6.80
2008,11,26,15,08,6.80
2008,11,26,15,09,6.80
2008,11,26,15,10,6.80
2008,11,26,15,11,6.80
2008,11,26,15,12,6.80
2008,11,26,15,13,6.80
2008,11,26,15,14,6.80
2008,11,26,15,15,6.80
2008,11,26,15,16,6.80
2008,11,26,15,17,6.80
2008,11,26,15,18,6.80
2008,11,26,15,19,6.80
2008,11,26,15,20,6.80
2008,11,26,15,21,6.80
2008,11,26,15,22,6.80
2008,11,26,15,23,6.80
2008,11,26,15,24,6.80
2008,11,26,15,25,6.80
2008,11,26,15,26,6.80
2008,11,26,15,27,6.80
2008,11,26,15,28,6.80
2008,11,26,15,29,6.80
2008,11,26,15,30,6.80
2008,11,26,15,31,6.80
2008,11,26,15,32,6.80
2008,11,26,15,33,6.80
2008,11,26,15,34,6.80
2008,11,26,15,35,6.80
2008,11,26,15,36,6.80
2008,11,26,15,37,6.80
2008,11,26,15,38,6.80
2008,11,26,15,39,6.80
2008,11,26,15,40,6.80
2008,11,26,15,41,6.80
2008,11,26,15,42,6.80
2008,11,26,15,43,6.80
2008,11,26,15,44,6.70
2008,11,26,15,45,6.70
2008,11,26,15,46,6.70
2008,11,26,15,47,6.70
2008,11,26,15,48,6.70
2008,11,26,15,49,6.70
2008,11,26,15,50,6.70
2008,11,26,15,51,6.70
2008,11,26,15,52,6.70
2008,11,26,15,53,6.70
2008,11,26,15,54,6.70
2008,11,26,15,55,6.70
2008,11,26,15,56,6.70
2008,11,26,15,57,6.70
2008,11,26,15,58,6.70
2008,11,26,15,59,6.70
2008,11,26,16,00,6.70
2008,11,26,16,01,6.60
2008,11,26,16,02,6.60
2008,11,26,16,03,6.60
2008,11,26,16,04,6.60
2008,11,26,16,05,6.60
2008,11,26,16,06,6.50
2008,11,26,16,07,6.50
2008,11,26,16,08,6.50
2008,11,26,16,09,6.40
2008,11,26,16,10,6.40
2008,11,26,16,11,6.40
2008,11,26,16,12,6.40
2008,11,26,16,13,6.40
2008,11,26,16,14,6.40
2008,11,26,16,15,6.40
2008,11,26,16,16,6.30
2008,11,26,16,17,6.30
2008,11,26,16,18,6.30
2008,11,26,16,19,6.30
2008,11,26,16,20,6.30
2008,11,26,16,21,6.30
2008,11,26,16,22,6.30
2008,11,26,16,23,6.30
2008,11,26,16,24,6.30
2008,11,26,16,25,6.30
2008,11,26,16,26,6.20
2008,11,26,16,27,6.20
2008,11,26,16,28,6.20
2008,11,26,16,29,6.20
2008,11,26,16,30,6.20
2008,11,26,16,31,6.20
2008,11,26,16,32,6.20
2008,11,26,16,33,6.20
2008,11,26,16,34,6.20
2008,11,26,16,35,6.20
2008,11,26,16,36,6.20
2008,11,26,16,37,6.20
2008,11,26,16,38,6.20
2008,11,26,16,39,6.20
2008,11,26,16,40,6.20
2008,11,26,16,41,6.20
2008,11,26,16,42,6.20
2008,11,26,16,43,6.20
2008,11,26,16,44,6.20
2008,11,26,16,45,6.20
2008,11,26,16,46,6.20
2008,11,26,16,47,6.20
2008,11,26,16,48,6.20
2008,11,26,16,49,6.20
2008,11,26,16,50,6.20
2008,11,26,16,51,6.20
2008,11,26,16,52,6.20
2008,11,26,16,53,6.20
2008,11,26,16,54,6.20
2008,11,26,16,55,6.20
2008,11,26,16,56,6.20
2008,11,26,16,57,6.10
2008,11,26,16,58,6.10
2008,11,26,16,59,6.10
2008,11,26,17,00,6.10
2008,11,26,17,01,6.10
2008,11,26,17,02,6.10
2008,11,26,17,03,6.00
2008,11,26,17,04,6.00
2008,11,26,17,05,6.00
2008,11,26,17,06,6.00
2008,11,26,17,07,6.00
2008,11,26,17,08,6.00
2008,11,26,17,09,6.00
2008,11,26,17,10,6.00
2008,11,26,17,11,6.00
2008,11,26,17,12,6.00
2008,11,26,17,13,6.00
2008,11,26,17,14,6.00
2008,11,26,17,15,6.00
2008,11,26,17,16,5.90
2008,11,26,17,17,5.90
2008,11,26,17,18,5.90
2008,11,26,17,19,5.90
2008,11,26,17,20,5.90
2008,11,26,17,21,5.90
2008,11,26,17,22,5.90
2008,11,26,17,23,5.90
2008,11,26,17,24,5.90
2008,11,26,17,25,5.90
2008,11,26,17,26,5.90
2008,11,26,17,27,5.90
2008,11,26,17,28,5.90
2008,11,26,17,29,5.90
2008,11,26,17,30,5.90
2008,11,26,17,31,5.90
2008,11,26,17,32,5.90
2008,11,26,17,33,5.90
2008,11,26,17,34,6.00
2008,11,26,17,35,6.00
2008,11,26,17,36,6.00
2008,11,26,17,37,6.00
2008,11,26,17,38,6.00
2008,11,26,17,39,6.10
2008,11,26,17,40,6.10
2008,11,26,17,41,6.10
2008,11,26,17,42,6.10
2008,11,26,17,43,6.00
2008,11,26,17,44,6.10
2008,11,26,17,45,6.10
2008,11,26,17,46,6.00
2008,11,26,17,47,6.00
2008,11,26,17,48,6.00
2008,11,26,17,49,6.00
2008,11,26,17,50,6.00
2008,11,26,17,51,6.00
2008,11,26,17,52,6.00
2008,11,26,17,53,6.00
2008,11,26,17,54,5.90
2008,11,26,17,55,5.90
2008,11,26,17,56,5.90
2008,11,26,17,57,5.90
2008,11,26,17,58,5.90
2008,11,26,17,59,5.90
2008,11,26,18,00,6.00
2008,11,26,18,01,6.00
2008,11,26,18,02,6.00
2008,11,26,18,03,6.00
2008,11,26,18,04,6.00
2008,11,26,18,05,5.90
2008,11,26,18,06,5.90